TimeCST,TemperatureF,Dew PointF,Humidity,Sea Level PressureIn,VisibilityMPH,Wind Direction,Wind SpeedMPH,Gust SpeedMPH,PrecipitationIn,Events,Conditions,WindDirDegrees,DateUTC
12:53 AM,41.0,39.0,93,30.22,8.0,NW,6.9,-,N/A,,Clear,310,2013-11-27 06:53:00
1:53 AM,41.0,37.9,89,30.23,10.0,NNW,10.4,-,N/A,,Clear,330,2013-11-27 07:53:00
2:53 AM,41.0,36.0,82,30.25,10.0,North,12.7,20.7,N/A,,Clear,350,2013-11-27 08:53:00
3:53 AM,39.0,35.1,86,30.27,10.0,North,12.7,-,N/A,,Clear,350,2013-11-27 09:53:00
4:53 AM,37.9,34.0,86,30.29,10.0,NNW,10.4,-,N/A,,Clear,340,2013-11-27 10:53:00
5:53 AM,37.0,33.1,86,30.32,10.0,NNW,10.4,-,N/A,,Clear,340,2013-11-27 11:53:00
6:53 AM,35.1,33.1,92,30.36,10.0,NNW,5.8,-,N/A,,Clear,340,2013-11-27 12:53:00
7:51 AM,37.4,33.8,87,30.36,10.0,North,6.9,-,N/A,,Mostly Cloudy,360,2013-11-27 13:51:00
7:53 AM,37.0,33.1,86,30.39,10.0,North,5.8,-,N/A,,Mostly Cloudy,350,2013-11-27 13:53:00
8:03 AM,37.4,33.8,87,30.37,10.0,North,10.4,17.3,N/A,,Scattered Clouds,360,2013-11-27 14:03:00
8:53 AM,39.0,28.9,67,30.41,10.0,NNE,12.7,-,N/A,,Clear,20,2013-11-27 14:53:00
9:53 AM,41.0,30.0,65,30.40,10.0,NNE,15.0,-,N/A,,Clear,20,2013-11-27 15:53:00
10:53 AM,43.0,30.0,60,30.40,10.0,North,12.7,-,N/A,,Clear,10,2013-11-27 16:53:00
11:53 AM,45.0,30.0,56,30.37,10.0,North,11.5,-,N/A,,Clear,350,2013-11-27 17:53:00
12:53 PM,46.9,30.9,54,30.35,10.0,North,10.4,-,N/A,,Clear,350,2013-11-27 18:53:00
1:53 PM,48.9,28.9,46,30.32,10.0,North,10.4,18.4,N/A,,Clear,360,2013-11-27 19:53:00
2:53 PM,48.9,28.9,46,30.32,10.0,North,11.5,-,N/A,,Clear,360,2013-11-27 20:53:00
3:53 PM,48.9,30.0,48,30.34,10.0,NNW,10.4,-,N/A,,Clear,340,2013-11-27 21:53:00
4:53 PM,46.0,30.0,54,30.35,10.0,North,6.9,-,N/A,,Clear,350,2013-11-27 22:53:00
5:53 PM,41.0,32.0,70,30.37,10.0,North,4.6,-,N/A,,Clear,350,2013-11-27 23:53:00
6:53 PM,37.0,33.1,86,30.40,10.0,NNW,3.5,-,N/A,,Clear,330,2013-11-28 00:53:00
7:53 PM,37.9,32.0,79,30.43,10.0,North,3.5,-,N/A,,Clear,360,2013-11-28 01:53:00
8:53 PM,34.0,32.0,92,30.44,10.0,Calm,Calm,-,N/A,,Clear,0,2013-11-28 02:53:00
9:53 PM,34.0,32.0,92,30.45,9.0,Calm,Calm,-,N/A,,Clear,0,2013-11-28 03:53:00
10:53 PM,33.1,32.0,96,30.46,10.0,Calm,Calm,-,N/A,,Clear,0,2013-11-28 04:53:00
11:53 PM,33.1,30.9,92,30.45,10.0,Calm,Calm,-,N/A,,Clear,0,2013-11-28 05:53:00